DLH3ME EDDC-EDDW

Flight info

Callsign DLH3ME
Flight time 0h 45m
Altitude 28000
Route BEBEX7E BEBEX Q230 TADUV T804 MAG L986 SAS Z88 NIE DCT PIXUR PIXUR3P
Aircraft A359/H-SDE2E3GHIJ3J4J5LM1ORWXY/LB1D1

Departure

Time 2026-05-08 19:30
Airport Dresden Airport (EDDC)

Arrival

Time 2026-05-08 20:16
Airport Bremen Airport (EDDW)
Time Latitude Longitude Altitude Speed Heading
2026-05-08 19:12 51.12604 13.76340 755 ft 0 kts 130°
2026-05-08 19:23 51.12615 13.76325 755 ft 2 kts 169°
2026-05-08 19:23 51.12622 13.76316 755 ft 2 kts 202°
2026-05-08 19:24 51.12633 13.76326 754 ft 2 kts 225°
2026-05-08 19:24 51.12634 13.76327 754 ft 0 kts 225°
2026-05-08 19:26 51.12633 13.76326 754 ft 1 kts 225°
2026-05-08 19:27 51.12599 13.76266 757 ft 12 kts 226°
2026-05-08 19:27 51.12549 13.76165 759 ft 11 kts 255°
2026-05-08 19:27 51.12531 13.76047 757 ft 11 kts 239°
2026-05-08 19:27 51.12483 13.75968 768 ft 9 kts 223°
2026-05-08 19:28 51.12435 13.75901 769 ft 10 kts 221°
2026-05-08 19:28 51.12385 13.75819 770 ft 11 kts 236°
2026-05-08 19:28 51.12388 13.75705 771 ft 11 kts 281°
2026-05-08 19:28 51.12421 13.75588 772 ft 12 kts 303°
2026-05-08 19:29 51.12480 13.75523 774 ft 10 kts 349°
2026-05-08 19:29 51.12515 13.75543 774 ft 0 kts 32°
2026-05-08 19:29 51.12582 13.75627 772 ft 43 kts 40°
2026-05-08 19:30 51.13034 13.76241 752 ft 125 kts 40°
2026-05-08 19:30 51.13841 13.77358 844 ft 174 kts 41°
2026-05-08 19:30 51.14775 13.78702 1432 ft 177 kts 44°
2026-05-08 19:30 51.15643 13.79982 2378 ft 162 kts 43°
2026-05-08 19:31 51.16505 13.81203 2938 ft 174 kts 42°
2026-05-08 19:31 51.17460 13.82519 3254 ft 190 kts 41°
2026-05-08 19:31 51.18497 13.83928 3428 ft 207 kts 40°
2026-05-08 19:31 51.19666 13.85502 3640 ft 230 kts 40°
2026-05-08 19:32 51.21157 13.86713 3952 ft 254 kts 13°
2026-05-08 19:32 51.22944 13.86650 4601 ft 263 kts 345°
2026-05-08 19:32 51.24659 13.85593 5367 ft 266 kts 336°
2026-05-08 19:32 51.26401 13.84495 6163 ft 269 kts 341°
2026-05-08 19:33 51.28217 13.83692 6954 ft 272 kts 347°
2026-05-08 19:33 51.30013 13.82749 7693 ft 274 kts 330°
2026-05-08 19:33 51.31425 13.80749 8519 ft 275 kts 305°
2026-05-08 19:33 51.32148 13.77976 9326 ft 276 kts 279°
2026-05-08 19:34 51.32325 13.74906 10130 ft 279 kts 274°
2026-05-08 19:34 51.32466 13.71772 10641 ft 292 kts 274°
2026-05-08 19:34 51.32631 13.68418 10857 ft 313 kts 275°
2026-05-08 19:34 51.32822 13.64849 11201 ft 328 kts 275°
2026-05-08 19:35 51.33030 13.61161 11917 ft 330 kts 275°
2026-05-08 19:35 51.33239 13.57530 12620 ft 332 kts 275°
2026-05-08 19:35 51.33451 13.53837 13331 ft 335 kts 275°
2026-05-08 19:35 51.33663 13.50116 14020 ft 338 kts 275°
2026-05-08 19:36 51.33876 13.46349 14614 ft 341 kts 275°
2026-05-08 19:36 51.34090 13.42545 15236 ft 344 kts 275°
2026-05-08 19:36 51.34304 13.38718 15860 ft 346 kts 275°
2026-05-08 19:36 51.34518 13.34863 16471 ft 349 kts 275°
2026-05-08 19:37 51.34732 13.30980 17074 ft 352 kts 275°
2026-05-08 19:37 51.34944 13.27096 17679 ft 355 kts 275°
2026-05-08 19:37 51.35160 13.23120 18285 ft 358 kts 275°
2026-05-08 19:37 51.35397 13.19134 18826 ft 361 kts 277°
2026-05-08 19:38 51.35856 13.15172 19353 ft 363 kts 281°
2026-05-08 19:38 51.36348 13.11193 19885 ft 366 kts 281°
2026-05-08 19:38 51.36830 13.07232 20414 ft 369 kts 280°
2026-05-08 19:38 51.37319 13.03170 20957 ft 372 kts 280°
2026-05-08 19:39 51.38080 12.99200 21430 ft 377 kts 294°
2026-05-08 19:39 51.39434 12.95593 21982 ft 380 kts 302°
2026-05-08 19:39 51.40908 12.92055 22525 ft 383 kts 302°
2026-05-08 19:39 51.42410 12.88504 23074 ft 386 kts 303°
2026-05-08 19:40 51.43930 12.84931 23626 ft 390 kts 303°
2026-05-08 19:40 51.45461 12.81330 24107 ft 392 kts 303°
2026-05-08 19:40 51.47006 12.77689 24594 ft 395 kts 303°
2026-05-08 19:40 51.48552 12.74034 25048 ft 398 kts 303°
2026-05-08 19:41 51.50113 12.70340 25520 ft 400 kts 302°
2026-05-08 19:41 51.51678 12.66629 25980 ft 403 kts 302°
2026-05-08 19:41 51.53256 12.62879 26434 ft 406 kts 302°
2026-05-08 19:41 51.54843 12.59103 26874 ft 409 kts 302°
2026-05-08 19:42 51.56442 12.55292 27294 ft 412 kts 302°
2026-05-08 19:42 51.58048 12.51461 27760 ft 415 kts 302°
2026-05-08 19:42 51.59641 12.47657 28100 ft 418 kts 302°
2026-05-08 19:43 51.62942 12.39749 28197 ft 433 kts 302°
2026-05-08 19:43 51.66290 12.31710 28188 ft 430 kts 302°
2026-05-08 19:44 51.69621 12.23686 28189 ft 431 kts 302°
2026-05-08 19:44 51.72935 12.15674 28193 ft 431 kts 302°
2026-05-08 19:45 51.76261 12.07611 28190 ft 431 kts 302°
2026-05-08 19:45 51.79581 11.99534 28189 ft 431 kts 302°
2026-05-08 19:46 51.82890 11.91451 28189 ft 431 kts 302°
2026-05-08 19:46 51.87833 11.79350 28187 ft 431 kts 302°
2026-05-08 19:47 51.91126 11.71254 27841 ft 430 kts 302°
2026-05-08 19:47 51.92764 11.67217 27576 ft 427 kts 302°
2026-05-08 19:47 51.94394 11.63193 27306 ft 425 kts 302°
2026-05-08 19:48 51.96016 11.59182 27061 ft 424 kts 302°
2026-05-08 19:48 51.97632 11.55178 26796 ft 422 kts 302°
2026-05-08 19:48 51.99234 11.51204 26532 ft 421 kts 302°
2026-05-08 19:48 52.00814 11.47278 26303 ft 419 kts 302°
2026-05-08 19:49 52.02405 11.43320 26046 ft 418 kts 302°
2026-05-08 19:49 52.03991 11.39302 25788 ft 416 kts 299°
2026-05-08 19:49 52.05297 11.35135 25540 ft 414 kts 292°
2026-05-08 19:49 52.06275 11.30800 25304 ft 412 kts 286°
2026-05-08 19:50 52.06948 11.26289 25059 ft 410 kts 281°
2026-05-08 19:50 52.07549 11.21755 24801 ft 409 kts 282°
2026-05-08 19:50 52.08167 11.17243 24569 ft 408 kts 282°
2026-05-08 19:50 52.08788 11.12737 24330 ft 407 kts 282°
2026-05-08 19:51 52.09403 11.08255 24197 ft 405 kts 282°
2026-05-08 19:51 52.10014 11.03772 24186 ft 406 kts 282°
2026-05-08 19:51 52.10623 10.99282 24187 ft 406 kts 282°
2026-05-08 19:51 52.11229 10.94791 24187 ft 406 kts 282°
2026-05-08 19:52 52.11825 10.90355 24184 ft 406 kts 282°
2026-05-08 19:52 52.12426 10.85866 24183 ft 406 kts 282°
2026-05-08 19:52 52.13026 10.81373 24184 ft 407 kts 282°
2026-05-08 19:52 52.13627 10.76874 24182 ft 407 kts 282°
2026-05-08 19:53 52.14227 10.72376 24184 ft 406 kts 282°
2026-05-08 19:53 52.14825 10.67879 24184 ft 407 kts 282°
2026-05-08 19:53 52.15423 10.63374 24178 ft 406 kts 282°
2026-05-08 19:53 52.16017 10.58876 24181 ft 407 kts 282°
2026-05-08 19:54 52.16612 10.54359 24183 ft 406 kts 282°
2026-05-08 19:54 52.17196 10.49907 24183 ft 406 kts 282°
2026-05-08 19:54 52.17786 10.45401 24183 ft 406 kts 282°
2026-05-08 19:54 52.18374 10.40891 24182 ft 406 kts 282°
2026-05-08 19:55 52.18960 10.36382 24185 ft 407 kts 282°
2026-05-08 19:55 52.19547 10.31854 24183 ft 407 kts 282°
2026-05-08 19:55 52.20131 10.27331 24182 ft 407 kts 282°
2026-05-08 19:55 52.20713 10.22812 24185 ft 407 kts 282°
2026-05-08 19:56 52.21285 10.18353 24182 ft 407 kts 282°
2026-05-08 19:56 52.21863 10.13836 24184 ft 407 kts 282°
2026-05-08 19:56 52.22438 10.09323 24185 ft 407 kts 281°
2026-05-08 19:56 52.23014 10.04797 24187 ft 407 kts 281°
2026-05-08 19:57 52.23589 10.00257 24183 ft 407 kts 281°
2026-05-08 19:57 52.24160 9.95735 24186 ft 407 kts 281°
2026-05-08 19:57 52.24964 9.91314 24190 ft 407 kts 292°
2026-05-08 19:57 52.26382 9.87306 24194 ft 409 kts 306°
2026-05-08 19:58 52.28307 9.83959 24019 ft 410 kts 319°
2026-05-08 19:58 52.30516 9.81028 23642 ft 410 kts 320°
2026-05-08 19:58 52.32732 9.78074 22936 ft 410 kts 319°
2026-05-08 19:58 52.34925 9.75121 22299 ft 405 kts 319°
2026-05-08 19:59 52.36384 9.73146 21861 ft 400 kts 319°
2026-05-08 19:59 52.38480 9.70297 21236 ft 392 kts 319°
2026-05-08 19:59 52.40552 9.67473 20604 ft 385 kts 319°
2026-05-08 19:59 52.42600 9.64678 19987 ft 377 kts 319°
2026-05-08 20:00 52.44594 9.61955 19372 ft 371 kts 319°
2026-05-08 20:00 52.46569 9.59254 18743 ft 365 kts 319°
2026-05-08 20:00 52.48502 9.56608 18104 ft 359 kts 319°
2026-05-08 20:00 52.50440 9.53949 17675 ft 372 kts 319°
2026-05-08 20:01 52.52441 9.51200 17407 ft 375 kts 319°
2026-05-08 20:01 52.54435 9.48461 17142 ft 372 kts 319°
2026-05-08 20:01 52.56392 9.45770 16881 ft 371 kts 319°
2026-05-08 20:01 52.58375 9.43041 16623 ft 370 kts 319°
2026-05-08 20:02 52.60348 9.40321 16364 ft 369 kts 319°
2026-05-08 20:02 52.62301 9.37612 15975 ft 367 kts 318°
2026-05-08 20:02 52.64118 9.34632 15344 ft 366 kts 313°
2026-05-08 20:02 52.65861 9.31603 14684 ft 360 kts 313°
2026-05-08 20:03 52.67569 9.28656 14077 ft 352 kts 313°
2026-05-08 20:03 52.69031 9.25462 13458 ft 353 kts 300°
2026-05-08 20:03 52.70186 9.21845 13164 ft 357 kts 296°
2026-05-08 20:03 52.71288 9.18170 12894 ft 354 kts 296°
2026-05-08 20:04 52.72389 9.14536 12626 ft 354 kts 297°
2026-05-08 20:04 52.73510 9.10928 12376 ft 353 kts 297°
2026-05-08 20:04 52.74641 9.07348 12112 ft 351 kts 297°
2026-05-08 20:04 52.75763 9.03833 11870 ft 350 kts 297°
2026-05-08 20:05 52.76901 9.00276 11611 ft 348 kts 297°
2026-05-08 20:05 52.78035 8.96731 11367 ft 349 kts 297°
2026-05-08 20:05 52.79171 8.93172 11114 ft 348 kts 297°
2026-05-08 20:05 52.80299 8.89634 10864 ft 347 kts 297°
2026-05-08 20:06 52.81404 8.86160 10697 ft 341 kts 297°
2026-05-08 20:06 52.82476 8.82786 10512 ft 320 kts 297°
2026-05-08 20:06 52.83472 8.79645 10264 ft 297 kts 297°
2026-05-08 20:06 52.84417 8.76661 9568 ft 288 kts 297°
2026-05-08 20:07 52.85335 8.73760 9135 ft 285 kts 297°
2026-05-08 20:07 52.86256 8.70846 8989 ft 285 kts 297°
2026-05-08 20:07 52.87174 8.67938 8858 ft 284 kts 297°
2026-05-08 20:07 52.88091 8.65029 8723 ft 284 kts 297°
2026-05-08 20:08 52.89001 8.62138 8598 ft 283 kts 297°
2026-05-08 20:08 52.89917 8.59243 8472 ft 284 kts 297°
2026-05-08 20:08 52.90840 8.56342 8341 ft 284 kts 297°
2026-05-08 20:08 52.91751 8.53484 8209 ft 284 kts 297°
2026-05-08 20:09 52.92679 8.50577 8095 ft 283 kts 297°
2026-05-08 20:09 52.93602 8.47683 7944 ft 283 kts 297°
2026-05-08 20:09 52.94520 8.44805 7611 ft 284 kts 297°
2026-05-08 20:09 52.95434 8.41935 7108 ft 278 kts 297°
2026-05-08 20:10 52.96335 8.39120 6611 ft 277 kts 300°
2026-05-08 20:10 52.97622 8.36776 6078 ft 273 kts 326°
2026-05-08 20:10 52.99345 8.35604 5568 ft 270 kts 352°
2026-05-08 20:10 53.01183 8.35771 5069 ft 266 kts 18°
2026-05-08 20:11 53.02757 8.37242 4552 ft 261 kts 45°
2026-05-08 20:11 53.03781 8.39694 4044 ft 256 kts 64°
2026-05-08 20:11 53.04461 8.42384 3748 ft 253 kts 82°
2026-05-08 20:11 53.04332 8.45284 3663 ft 253 kts 102°
2026-05-08 20:12 53.04074 8.48170 3443 ft 252 kts 95°
2026-05-08 20:12 53.04033 8.51072 3145 ft 250 kts 90°
2026-05-08 20:12 53.04128 8.53896 2826 ft 238 kts 89°
2026-05-08 20:12 53.04173 8.56572 2520 ft 226 kts 88°
2026-05-08 20:13 53.04239 8.59106 2227 ft 214 kts 90°
2026-05-08 20:13 53.04294 8.61519 1923 ft 201 kts 89°
2026-05-08 20:13 53.04342 8.63711 1677 ft 178 kts 90°
2026-05-08 20:13 53.04389 8.65664 1438 ft 160 kts 89°
2026-05-08 20:14 53.04427 8.67407 1232 ft 142 kts 89°
2026-05-08 20:14 53.04464 8.68952 1048 ft 129 kts 90°
2026-05-08 20:14 53.04496 8.70460 859 ft 128 kts 90°
2026-05-08 20:14 53.04532 8.71967 695 ft 131 kts 90°
2026-05-08 20:15 53.04565 8.73460 547 ft 135 kts 90°
2026-05-08 20:15 53.04603 8.75013 335 ft 131 kts 90°
2026-05-08 20:15 53.04636 8.76526 164 ft 131 kts 90°
2026-05-08 20:15 53.04671 8.78045 29 ft 133 kts 89°
2026-05-08 20:16 53.04690 8.79150 28 ft 52 kts 88°
2026-05-08 20:16 53.04700 8.79455 26 ft 28 kts 86°
2026-05-08 20:16 53.04717 8.79862 27 ft 19 kts 79°
2026-05-08 20:16 53.04756 8.79952 28 ft 13 kts 30°
2026-05-08 20:17 53.04784 8.79966 28 ft 2 kts 15°
2026-05-08 20:17 53.04811 8.79972 27 ft 5 kts 356°
2026-05-08 20:17 53.04851 8.79928 27 ft 8 kts 316°
2026-05-08 20:17 53.04876 8.79839 29 ft 8 kts 284°
2026-05-08 20:18 53.04877 8.79745 30 ft 9 kts 269°
2026-05-08 20:18 53.04874 8.79628 30 ft 12 kts 268°
2026-05-08 20:18 53.04870 8.79463 27 ft 16 kts 268°
2026-05-08 20:18 53.04865 8.79266 28 ft 18 kts 268°